CW3518 Weather Reports


time (UTC)temp
F
wind
direction
speed
knots
gust
knots
rain 1hr
in
rain 24hr
in
rain mn
in
humidity
%
barometer
mb
20260902024526 89 131 3.5 4.3 0.00 0.00 0.00 49 1014.5
20260902024028 89 128 4.3 4.3 0.00 0.00 0.00 49 1014.4
20260902023525 89 147 4.3 4.3 0.00 0.00 0.00 49 1014.4
20260902022955 88 156 4.3 4.3 0.00 0.00 0.00 49 1014.3
20260902022525 88 174 2.6 5.2 0.00 0.00 0.00 50 1014.2
20260902022025 88 141 4.3 5.2 0.00 0.00 0.00 49 1014.1
20260902021525 89 131 4.3 5.2 0.00 0.00 0.00 49 1014.1
20260902021025 89 127 5.2 6.1 0.00 0.00 0.00 48 1014.0
20260902020455 89 132 4.3 6.1 0.00 0.00 0.00 48 1013.9
20260902020025 89 140 4.3 6.1 0.00 0.00 0.00 48 1013.7
20260902015456 89 126 5.2 7.0 0.00 0.00 0.00 47 1013.6
20260902015026 89 128 5.2 7.8 0.00 0.00 0.00 47 1013.5
20260902013955 91 131 7.0 7.8 0.00 0.00 0.00 45 1013.4
20260902012954 91 135 7.0 8.7 0.00 0.00 0.00 44 1013.2
20260902012524 91 137 7.0 7.0 0.00 0.00 0.00 43 1013.3
20260902012024 92 131 6.1 7.0 0.00 0.00 0.00 42 1013.3
20260902011524 92 133 4.3 4.3 0.00 0.00 0.00 42 1013.2
20260902011024 92 122 4.3 5.2 0.00 0.00 0.00 42 1013.2
20260902010524 93 124 3.5 5.2 0.00 0.00 0.00 41 1013.2
20260902010024 93 122 4.3 5.2 0.00 0.00 0.00 41 1013.2
20260902005524 93 129 3.5 6.1 0.00 0.00 0.00 40 1013.2
20260902005024 94 137 4.3 7.8 0.00 0.00 0.00 40 1013.2
20260902004524 94 139 5.2 7.8 0.00 0.00 0.00 40 1013.2
20260902004024 94 124 5.2 7.8 0.00 0.00 0.00 39 1013.2
20260902003524 95 135 5.2 8.7 0.00 0.00 0.00 39 1013.2
20260902003024 95 145 6.1 8.7 0.00 0.00 0.00 39 1013.3
20260902002524 95 126 7.0 10.4 0.00 0.00 0.00 38 1013.3
20260902001954 96 144 6.1 10.4 0.00 0.00 0.00 37 1013.4
20260902001525 96 155 7.8 9.6 0.00 0.00 0.00 36 1013.4
20260902001024 96 135 7.8 11.3 0.00 0.00 0.00 36 1013.4
20260902000453 96 149 7.8 11.3 0.00 0.00 0.00 36 1013.5
20260902000024 96 126 7.8 11.3 0.00 0.00 0.00 37 1013.4
20260901235524 96 131 10.4 13.0 0.00 0.00 0.00 36 1013.4
20260901234953 96 134 9.6 13.0 0.00 0.00 0.00 36 1013.5
20260901234523 97 135 11.3 13.0 0.00 0.00 0.00 35 1013.5
20260901234023 96 131 8.7 14.8 0.00 0.00 0.00 35 1013.5
20260901233023 97 120 10.4 13.9 0.00 0.00 0.00 35 1013.6
20260901232454 97 148 7.8 12.2 0.00 0.00 0.00 34 1013.7
20260901232024 97 101 7.8 13.0 0.00 0.00 0.00 35 1013.7
20260901231523 97 110 8.7 13.0 0.00 0.00 0.00 34 1013.6
20260901231023 97 108 9.6 13.0 0.00 0.00 0.00 34 1013.7
20260901230023 97 98 6.1 13.0 0.00 0.00 0.00 34 1013.7
20260901225523 97 127 7.8 13.0 0.00 0.00 0.00 34 1013.7
20260901225023 97 102 8.7 11.3 0.00 0.00 0.00 34 1013.7
20260901224523 98 105 10.4 11.3 0.00 0.00 0.00 34 1013.7
20260901224023 98 152 6.1 16.5 0.00 0.00 0.00 34 1013.7
20260901223023 97 92 9.6 15.6 0.00 0.00 0.00 34 1013.7
20260901222523 98 138 8.7 15.6 0.00 0.00 0.00 34 1013.7
20260901221523 97 117 8.7 10.4 0.00 0.00 0.00 34 1013.9
20260901220523 97 120 7.8 14.8 0.00 0.00 0.00 34 1013.9
20260901220022 98 152 9.6 15.6 0.00 0.00 0.00 33 1013.9
20260901215523 97 99 7.8 15.6 0.00 0.00 0.00 34 1014.0
20260901215022 98 176 10.4 12.2 0.00 0.00 0.00 34 1014.0
20260901214022 97 132 7.0 13.0 0.00 0.00 0.00 35 1014.2
20260901213522 98 137 8.7 13.0 0.00 0.00 0.00 35 1014.2
20260901213023 98 87 8.7 13.0 0.00 0.00 0.00 34 1014.1
20260901212525 97 156 10.4 13.9 0.00 0.00 0.00 35 1014.0
20260901212023 97 115 7.8 13.9 0.00 0.00 0.00 35 1014.2
20260901211522 97 104 7.0 13.9 0.00 0.00 0.00 35 1014.3
20260901210522 97 136 12.2 12.2 0.00 0.00 0.00 36 1014.3
20260901205525 97 171 6.1 9.6 0.00 0.00 0.00 37 1014.4
20260901205025 96 174 7.0 13.0 0.00 0.00 0.00 37 1014.5
20260901204524 96 173 7.0 13.0 0.00 0.00 0.00 38 1014.6
20260901203521 96 133 7.8 13.0 0.00 0.00 0.00 37 1014.7
20260901203025 97 94 7.0 10.4 0.00 0.00 0.00 37 1014.7
20260901202022 97 115 9.6 13.9 0.00 0.00 0.00 37 1014.8
20260901201523 96 192 7.8 16.5 0.00 0.00 0.00 38 1014.9
20260901200523 95 208 5.2 13.9 0.00 0.00 0.00 38 1015.1
20260901200021 96 128 6.1 13.9 0.00 0.00 0.00 38 1015.1
20260901195521 96 87 6.1 14.8 0.00 0.00 0.00 39 1015.1
20260901195021 95 99 14.8 15.6 0.00 0.00 0.00 39 1015.1
20260901194521 96 145 5.2 15.6 0.00 0.00 0.00 39 1015.2
20260901194020 97 123 13.9 15.6 0.00 0.00 0.00 38 1015.1
20260901193020 94 77 7.0 13.9 0.00 0.00 0.00 40 1015.3
20260901192520 94 99 7.8 13.9 0.00 0.00 0.00 40 1015.4
20260901191520 96 165 2.6 13.0 0.00 0.00 0.00 38 1015.5
20260901190520 95 150 6.1 11.3 0.00 0.00 0.00 38 1015.7
20260901190020 97 174 7.8 11.3 0.00 0.00 0.00 35 1015.7
20260901185520 96 140 6.1 10.4 0.00 0.00 0.00 38 1015.8
20260901185020 95 259 2.6 13.9 0.00 0.00 0.00 39 1015.8
20260901184520 95 172 11.3 13.9 0.00 0.00 0.00 38 1015.9
20260901184020 95 94 7.8 13.0 0.00 0.00 0.00 40 1016.1
20260901183520 96 127 13.0 13.0 0.00 0.00 0.00 40 1016.1
20260901183021 94 132 2.6 10.4 0.00 0.00 0.00 42 1016.3
20260901182520 94 93 6.1 13.0 0.00 0.00 0.00 41 1016.3
20260901182019 94 229 7.8 13.9 0.00 0.00 0.00 41 1016.3
20260901181519 94 148 8.7 13.9 0.00 0.00 0.00 42 1016.4
20260901180019 94 144 13.0 13.9 0.00 0.00 0.00 41 1016.6
20260901175520 95 121 9.6 13.0 0.00 0.00 0.00 41 1016.6
20260901175019 94 130 7.0 12.2 0.00 0.00 0.00 43 1016.8
20260901174519 94 155 7.8 12.2 0.00 0.00 0.00 44 1016.8
20260901174019 93 208 7.8 12.2 0.00 0.00 0.00 44 1016.9
20260901173519 94 124 7.8 12.2 0.00 0.00 0.00 43 1016.9
20260901173019 94 94 9.6 14.8 0.00 0.00 0.00 44 1017.0
20260901172519 93 152 2.6 14.8 0.00 0.00 0.00 45 1017.1
20260901171519 93 220 7.8 9.6 0.00 0.00 0.00 44 1017.2
20260901171019 93 226 4.3 11.3 0.00 0.00 0.00 45 1017.3
20260901170019 93 249 5.2 10.4 0.00 0.00 0.00 45 1017.4
20260901165519 94 153 7.8 8.7 0.00 0.00 0.00 45 1017.4
20260901165019 93 112 2.6 9.6 0.00 0.00 0.00 46 1017.4
20260901164519 93 102 7.8 9.6 0.00 0.00 0.00 46 1017.5
20260901164019 92 211 1.7 7.8 0.00 0.00 0.00 46 1017.5
20260901163519 91 144 6.1 10.4 0.00 0.00 0.00 48 1017.5
20260901162519 92 137 5.2 8.7 0.00 0.00 0.00 47 1017.6
20260901161519 91 213 7.0 12.2 0.00 0.00 0.00 48 1017.6
20260901161019 91 228 5.2 11.3 0.00 0.00 0.00 49 1017.7
20260901160519 91 187 7.0 11.3 0.00 0.00 0.00 49 1017.6
20260901160019 91 249 6.1 10.4 0.00 0.00 0.00 50 1017.6
20260901155519 90 169 3.5 10.4 0.00 0.00 0.00 50 1017.6
20260901155018 91 204 6.1 8.7 0.00 0.00 0.00 50 1017.6
20260901154548 90 207 7.0 8.7 0.00 0.00 0.00 51 1017.7
20260901154018 90 199 6.1 8.7 0.00 0.00 0.00 51 1017.6
20260901153518 90 192 3.5 8.7 0.00 0.00 0.00 52 1017.6
20260901153019 89 201 4.3 9.6 0.00 0.00 0.00 53 1017.5
20260901152518 89 160 5.2 9.6 0.00 0.00 0.00 53 1017.5
20260901152018 89 221 9.6 9.6 0.00 0.00 0.00 54 1017.5
20260901151518 89 138 5.2 8.7 0.00 0.00 0.00 55 1017.6
20260901151018 89 242 4.3 9.6 0.00 0.00 0.00 55 1017.6
20260901150518 88 289 1.7 9.6 0.00 0.00 0.00 56 1017.6
20260901150018 87 232 4.3 10.4 0.00 0.00 0.00 57 1017.6
20260901145518 87 225 7.8 10.4 0.00 0.00 0.00 57 1017.6
20260901145018 87 199 4.3 8.7 0.00 0.00 0.00 58 1017.7
20260901144518 87 220 7.8 8.7 0.00 0.00 0.00 57 1017.7
20260901144019 87 183 4.3 7.8 0.00 0.00 0.00 57 1017.7
20260901143518 87 223 5.2 7.8 0.00 0.00 0.00 58 1017.7
20260901143018 86 190 7.0 7.8 0.00 0.00 0.00 58 1017.7
20260901142018 85 233 5.2 7.0 0.00 0.00 0.00 59 1017.7
20260901141518 85 141 2.6 7.0 0.00 0.00 0.00 60 1017.7
20260901140518 85 227 7.0 7.8 0.00 0.00 0.00 60 1017.7
20260901140017 84 179 4.3 7.0 0.00 0.00 0.00 61 1017.6
20260901135518 84 224 2.6 6.1 0.00 0.00 0.00 61 1017.6
20260901135017 84 198 3.5 5.2 0.00 0.00 0.00 62 1017.6
20260901134517 83 191 3.5 6.1 0.00 0.00 0.00 62 1017.6
20260901134017 82 165 2.6 6.1 0.00 0.00 0.00 63 1017.6
20260901133517 82 214 5.2 5.2 0.00 0.00 0.00 63 1017.5
20260901133018 82 191 3.5 5.2 0.00 0.00 0.00 64 1017.5
20260901132517 81 193 3.5 5.2 0.00 0.00 0.00 65 1017.5
20260901132017 81 176 4.3 5.2 0.00 0.00 0.00 66 1017.5
20260901131517 81 180 5.2 5.2 0.00 0.00 0.00 67 1017.5
20260901131017 80 193 4.3 4.3 0.00 0.00 0.00 68 1017.4
20260901130517 80 178 4.3 5.2 0.00 0.00 0.00 68 1017.5
20260901130017 79 131 3.5 5.2 0.00 0.00 0.00 69 1017.5
20260901125518 79 121 4.3 5.2 0.00 0.00 0.00 70 1017.4
20260901125017 78 128 4.3 4.3 0.00 0.00 0.00 70 1017.4
20260901124517 78 226 2.6 5.2 0.00 0.00 0.00 71 1017.3
20260901124017 78 146 2.6 5.2 0.00 0.00 0.00 71 1017.2
20260901123517 78 127 4.3 5.2 0.00 0.00 0.00 70 1017.2
20260901122517 78 166 3.5 5.2 0.00 0.00 0.00 70 1017.0
20260901122017 78 150 2.6 5.2 0.00 0.00 0.00 71 1016.9
20260901121017 77 99 4.3 5.2 0.00 0.00 0.00 72 1016.9
20260901120517 77 81 4.3 5.2 0.00 0.00 0.00 72 1016.9
20260901120016 78 73 4.3 4.3 0.00 0.00 0.00 69 1016.9
20260901115017 78 130 3.5 5.2 0.00 0.00 0.00 69 1016.8
20260901114016 78 251 5.2 6.1 0.00 0.00 0.00 69 1016.6
20260901113516 78 255 5.2 6.1 0.00 0.00 0.00 70 1016.6
20260901113016 78 252 4.3 6.1 0.00 0.00 0.00 70 1016.5
20260901112516 78 240 5.2 7.8 0.00 0.00 0.00 71 1016.5
20260901112016 78 241 4.3 7.8 0.00 0.00 0.00 70 1016.5
20260901111516 78 248 6.1 7.8 0.00 0.00 0.00 70 1016.4
20260901110516 79 247 7.0 7.0 0.00 0.00 0.00 69 1016.5
20260901105516 79 241 4.3 6.1 0.00 0.00 0.00 68 1016.5
20260901105016 80 255 5.2 6.1 0.00 0.00 0.00 67 1016.5
20260901104516 80 256 5.2 6.1 0.00 0.00 0.00 67 1016.5
20260901104016 80 257 5.2 6.1 0.00 0.00 0.00 66 1016.5
20260901103515 80 247 5.2 6.1 0.00 0.00 0.00 66 1016.5
20260901103016 80 244 5.2 5.2 0.00 0.00 0.00 65 1016.4
20260901102515 80 234 5.2 6.1 0.00 0.00 0.00 64 1016.5
20260901102015 80 212 5.2 6.1 0.00 0.00 0.00 64 1016.5
20260901101515 80 210 6.1 6.1 0.00 0.00 0.00 63 1016.5
20260901101015 80 206 5.2 6.1 0.00 0.00 0.00 63 1016.5
20260901100515 80 205 5.2 5.2 0.00 0.00 0.00 63 1016.5
20260901095515 80 199 4.3 5.2 0.00 0.00 0.00 63 1016.5
20260901095015 80 193 4.3 6.1 0.00 0.00 0.00 62 1016.5
20260901094515 80 178 5.2 6.1 0.00 0.00 0.00 62 1016.5
20260901094015 80 197 4.3 4.3 0.00 0.00 0.00 62 1016.6
20260901093515 80 177 3.5 5.2 0.00 0.00 0.00 63 1016.6
20260901092515 80 170 5.2 6.1 0.00 0.00 0.00 62 1016.6
20260901092015 80 151 4.3 6.1 0.00 0.00 0.00 62 1016.6
20260901091514 80 166 5.2 7.0 0.00 0.00 0.00 61 1016.6
20260901091014 81 143 4.3 7.8 0.00 0.00 0.00 61 1016.5
20260901085514 81 143 6.1 7.8 0.00 0.00 0.00 60 1016.5
20260901085015 81 144 6.1 7.0 0.00 0.00 0.00 60 1016.5
20260901084514 81 133 5.2 6.1 0.00 0.00 0.00 60 1016.4
20260901084014 81 144 6.1 7.0 0.00 0.00 0.00 59 1016.4
20260901083515 81 137 4.3 7.0 0.00 0.00 0.00 59 1016.4
20260901083014 81 140 6.1 6.1 0.00 0.00 0.00 59 1016.4
20260901082515 81 129 5.2 7.0 0.00 0.00 0.00 59 1016.3
20260901082015 81 136 6.1 7.0 0.00 0.00 0.00 59 1016.2
20260901081514 82 129 6.1 7.0 0.00 0.00 0.00 59 1016.2
20260901081014 82 129 7.0 7.0 0.00 0.00 0.00 58 1016.1
20260901080514 82 123 5.2 6.1 0.00 0.00 0.00 58 1016.1
20260901080014 82 119 5.2 6.1 0.00 0.00 0.00 58 1016.1
20260901075514 82 125 6.1 6.1 0.00 0.00 0.00 58 1016.1
20260901075015 81 115 4.3 6.1 0.00 0.00 0.00 58 1016.1
20260901074014 80 78 3.5 4.3 0.00 0.00 0.00 58 1016.1
20260901073514 81 71 3.5 6.1 0.00 0.00 0.00 57 1016.1
20260901072013 82 101 4.3 5.2 0.00 0.00 0.00 56 1016.2
20260901071514 81 96 4.3 5.2 0.00 0.00 0.00 57 1016.2
20260901070513 81 84 4.3 6.1 0.00 0.00 0.00 56 1016.1
20260901070013 81 81 5.2 6.1 0.00 0.00 0.00 55 1016.1
20260901065513 82 79 4.3 7.0 0.00 0.00 0.00 54 1016.1
20260901064513 82 95 5.2 6.1 0.00 0.00 0.00 53 1016.0
20260901064013 83 105 4.3 5.2 0.00 0.00 0.00 52 1016.0
20260901063514 83 103 4.3 4.3 0.00 0.00 0.00 53 1016.0
20260901063013 82 102 4.3 7.0 0.00 0.00 0.00 53 1016.0
20260901062514 81 76 2.6 8.7 0.00 0.00 0.00 53 1016.0
20260901062014 82 56 5.2 8.7 0.00 0.00 0.00 52 1016.1
20260901061013 83 35 4.3 5.2 0.00 0.00 0.00 49 1015.8
20260901060513 83 29 4.3 5.2 0.00 0.00 0.00 48 1015.7
20260901060013 83 33 4.3 5.2 0.00 0.00 0.00 48 1015.7
20260901055513 83 37 4.3 6.1 0.00 0.00 0.00 47 1015.7
20260901055013 83 36 4.3 10.4 0.00 0.00 0.00 48 1015.7
20260901054513 83 62 6.1 10.4 0.00 0.00 0.00 47 1015.7
20260901054013 85 74 7.0 7.0 0.00 0.00 0.00 45 1015.6
20260901053513 86 200 2.6 3.5 0.00 0.00 0.00 44 1015.5
20260901053013 86 191 2.6 3.5 0.00 0.00 0.00 44 1015.4
20260901052513 86 183 3.5 3.5 0.00 0.00 0.00 43 1015.4
20260901052013 86 180 3.5 4.3 0.00 0.00 0.00 43 1015.3
20260901051513 86 185 3.5 4.3 0.00 0.00 0.00 43 1015.3
20260901051013 86 164 4.3 5.2 0.00 0.00 0.00 43 1015.3
20260901050513 86 163 4.3 5.2 0.00 0.00 0.00 42 1015.3
20260901050013 86 169 4.3 6.1 0.00 0.00 0.00 42 1015.3
20260901045513 87 165 5.2 6.1 0.00 0.00 0.00 42 1015.3
20260901045013 87 164 5.2 6.1 0.00 0.00 0.00 42 1015.3
20260901044012 87 164 5.2 6.1 0.00 0.00 0.00 42 1015.2
20260901043513 87 145 5.2 5.2 0.00 0.00 0.00 42 1015.1
20260901043012 87 135 4.3 5.2 0.00 0.00 0.00 42 1015.1
20260901042512 87 140 4.3 4.3 0.00 0.00 0.00 42 1015.1
20260901042012 86 126 3.5 4.3 0.00 0.00 0.00 42 1015.1
20260901041512 86 117 3.5 3.5 0.00 0.00 0.00 43 1015.2
20260901040512 85 86 2.6 3.5 0.00 0.00 0.00 44 1015.3
20260901040013 86 45 2.6 3.5 0.00 0.00 0.00 44 1015.3
20260901035513 86 93 2.6 3.5 0.00 0.00 0.00 43 1015.3
20260901035013 85 91 3.5 4.3 0.00 0.00 0.00 43 1015.3
20260901033512 88 119 3.5 4.3 0.00 0.00 0.00 40 1015.2
20260901033013 88 152 4.3 4.3 0.00 0.00 0.00 40 1015.2
20260901032512 89 162 3.5 4.3 0.00 0.00 0.00 40 1015.2
20260901032013 89 167 3.5 4.3 0.00 0.00 0.00 40 1015.1
20260901031012 89 182 3.5 3.5 0.00 0.00 0.00 39 1015.1
20260901030512 89 176 2.6 3.5 0.00 0.00 0.00 39 1015.1
20260901030013 89 190 3.5 3.5 0.00 0.00 0.00 40 1015.0
20260901025513 88 199 3.5 3.5 0.00 0.00 0.00 40 1015.0
20260901025013 88 206 3.5 3.5 0.00 0.00 0.00 40 1014.9